Change the Weather History Date:

Monday, November 21, 2011

  Actual Average Record
Temperature  
Mean Temperature 42 °F -  
Max Temperature 53 °F 46 °F 60 °F (1999)
Min Temperature 30 °F 31 °F 15 °F (2008)
Degree Days  
Heating Degree Days 24    
Moisture  
Dew Point 26 °F    
Average Humidity 51    
Maximum Humidity 64    
Minimum Humidity 37    
Precipitation  
Precipitation 0.00 in - - ()
Sea Level Pressure  
Sea Level Pressure 30.24 in    
Wind  
Wind Speed 8 mph (NNE)    
Max Wind Speed 16 mph    
Max Gust Speed 18 mph    
Visibility 10 miles    
Events      
Averages and records for this station are not official NWS values.
T = Trace of Precipitation, MM = Missing Value Source: NWS Daily Summary

Daily Weather History Graph

Daily Weather History Graph

Search for Another Location

Airport or City:

Trip Planner

Search our weather history database for the weather conditions in past years. The results will help you decide how hot, cold, wet, or windy it might be!

Date:

Astronomy

Nov. 21, 2011 Rise Set
Actual Time 6:42 AM EST 4:20 PM EST
Civil Twilight 6:12 AM EST 4:51 PM EST
Nautical Twilight 5:38 AM EST 5:25 PM EST
Astronomical Twilight 5:04 AM EST 5:58 PM EST
Moon 2:13 AM EST (11/21) 1:44 PM EST (11/21)
Length of Visible Light 10h 38m
Length of Day
9h 38m
Waning Crescent, 18% of the Moon is Illuminated
Nov 21
Waning Crescent
Nov 25
New
Dec 2
First Quarter
Dec 10
Full
Dec 17
Last Quarter

Hourly Weather History & Observations

Time (EST) Temp. Windchill Dew Point Humidity Pressure Visibility Wind Dir Wind Speed Gust Speed Precip Events Conditions
12:15 AM 53.6 °F - 37.4 °F 54% 30.08 in 10.0 mi West 8.1 mph - N/A   Clear
12:35 AM 53.6 °F - 37.4 °F 54% 30.08 in 10.0 mi West 6.9 mph - N/A   Clear
12:55 AM 53.6 °F - 35.6 °F 51% 30.08 in 10.0 mi WNW 5.8 mph - N/A   Clear
1:15 AM 53.6 °F - 37.4 °F 54% 30.09 in 10.0 mi WNW 6.9 mph - N/A   Clear
1:35 AM 53.6 °F - 35.6 °F 51% 30.09 in 10.0 mi NW 6.9 mph - N/A   Mostly Cloudy
1:55 AM 53.6 °F - 35.6 °F 51% 30.09 in 10.0 mi NW 8.1 mph - N/A   Overcast
2:35 AM 53.6 °F - 33.8 °F 47% 30.11 in 10.0 mi NW 8.1 mph - N/A   Overcast
2:55 AM 51.8 °F - 35.6 °F 54% 30.11 in 10.0 mi NNW 9.2 mph - N/A   Overcast
3:35 AM 51.8 °F - 33.8 °F 50% 30.12 in 10.0 mi NW 8.1 mph - N/A   Overcast
4:15 AM 51.8 °F - 30.2 °F 44% 30.13 in 10.0 mi NW 6.9 mph - N/A   Overcast
4:35 AM 51.8 °F - 30.2 °F 44% 30.14 in 10.0 mi NNW 8.1 mph - N/A   Overcast
4:55 AM 51.8 °F - 30.2 °F 44% 30.15 in 10.0 mi NNE 10.4 mph - N/A   Scattered Clouds
5:15 AM 50.0 °F - 30.2 °F 47% 30.15 in 10.0 mi North 15.0 mph - N/A   Mostly Cloudy
5:35 AM 48.2 °F - 30.2 °F 50% 30.17 in 10.0 mi North 10.4 mph - N/A   Overcast
5:55 AM 48.2 °F - 30.2 °F 50% 30.18 in 10.0 mi NNE 10.4 mph 18.4 mph N/A   Overcast
6:35 AM 48.2 °F - 28.4 °F 46% 30.20 in 10.0 mi NNE 10.4 mph - N/A   Overcast
6:55 AM 46.4 °F 41.1 °F 28.4 °F 50% 30.21 in 10.0 mi NNE 11.5 mph - N/A   Overcast
7:35 AM 46.4 °F 40.7 °F 28.4 °F 50% 30.24 in 10.0 mi NNE 12.7 mph - N/A   Mostly Cloudy
7:55 AM 46.4 °F 40.7 °F 28.4 °F 50% 30.24 in 10.0 mi North 12.7 mph - N/A   Partly Cloudy
8:15 AM 46.4 °F 39.8 °F 28.4 °F 50% 30.25 in 10.0 mi NNE 16.1 mph - N/A   Clear
8:35 AM 46.4 °F 40.4 °F 26.6 °F 46% 30.25 in 10.0 mi NNE 13.8 mph - N/A   Clear
8:55 AM 46.4 °F 41.9 °F 26.6 °F 46% 30.26 in 10.0 mi North 9.2 mph - N/A   Clear
9:15 AM 46.4 °F 41.1 °F 28.4 °F 50% 30.27 in 10.0 mi North 11.5 mph - N/A   Clear
9:55 AM 46.4 °F 41.9 °F 26.6 °F 46% 30.29 in 10.0 mi NNE 9.2 mph - N/A   Clear
10:15 AM 46.4 °F 41.5 °F 26.6 °F 46% 30.29 in 10.0 mi NE 10.4 mph - N/A   Partly Cloudy
10:35 AM 46.4 °F 42.9 °F 24.8 °F 43% 30.29 in 10.0 mi NE 6.9 mph - N/A   Partly Cloudy
10:55 AM 46.4 °F 41.9 °F 26.6 °F 46% 30.29 in 10.0 mi NNE 9.2 mph - N/A   Partly Cloudy
11:35 AM 48.2 °F - 24.8 °F 40% 30.28 in 10.0 mi North 10.4 mph 16.1 mph N/A   Clear
11:55 AM 48.2 °F - 23.0 °F 37% 30.27 in 10.0 mi NNE 9.2 mph - N/A   Clear
12:15 PM 48.2 °F - 23.0 °F 37% 30.26 in 10.0 mi North 10.4 mph - N/A   Clear
12:35 PM 48.2 °F - 23.0 °F 37% 30.26 in 10.0 mi ESE 4.6 mph - N/A   Scattered Clouds
1:15 PM 48.2 °F - 24.8 °F 40% 30.26 in 10.0 mi East 9.2 mph - N/A   Mostly Cloudy
1:35 PM 46.4 °F 41.9 °F 24.8 °F 43% 30.26 in 10.0 mi East 9.2 mph - N/A   Mostly Cloudy
1:55 PM 44.6 °F 39.7 °F 26.6 °F 49% 30.26 in 10.0 mi ENE 9.2 mph - N/A   Overcast
2:15 PM 44.6 °F 39.7 °F 24.8 °F 46% 30.26 in 10.0 mi ENE 9.2 mph 16.1 mph N/A   Mostly Cloudy
2:55 PM 44.6 °F 39.7 °F 24.8 °F 46% 30.26 in 10.0 mi East 9.2 mph - N/A   Clear
3:15 PM - - - N/A% - - North - - N/A   Unknown
3:35 PM - - - N/A% - - North - - N/A   Unknown
3:55 PM - - - N/A% 30.27 in - East 6.9 mph - N/A   Unknown
4:35 PM 41.0 °F 36.4 °F 21.2 °F 45% 30.29 in 10.0 mi East 6.9 mph - N/A   Clear
5:15 PM 39.2 °F 35.0 °F 21.2 °F 49% 30.30 in 10.0 mi East 5.8 mph - N/A   Clear
5:55 PM 37.4 °F 32.8 °F 21.2 °F 52% 30.32 in 10.0 mi East 5.8 mph - N/A   Clear
6:15 PM 37.4 °F 32.8 °F 21.2 °F 52% 30.32 in 10.0 mi East 5.8 mph - N/A   Clear
6:35 PM 37.4 °F 33.8 °F 21.2 °F 52% 30.32 in 10.0 mi East 4.6 mph - N/A   Clear
6:55 PM 35.6 °F - 21.2 °F 56% 30.33 in 10.0 mi Calm Calm - N/A   Clear
7:15 PM 33.8 °F - 21.2 °F 60% 30.33 in 10.0 mi Calm Calm - N/A   Clear
7:35 PM 33.8 °F - 19.4 °F 56% 30.33 in 10.0 mi Calm Calm - N/A   Clear
7:55 PM 33.8 °F - 21.2 °F 60% 30.33 in 10.0 mi Calm Calm - N/A   Clear
8:15 PM 33.8 °F - 21.2 °F 60% 30.33 in 10.0 mi Calm Calm - N/A   Clear
8:35 PM 32.0 °F - 21.2 °F 64% 30.33 in 10.0 mi Calm Calm - N/A   Clear
8:55 PM 30.2 °F - 17.6 °F 60% 30.33 in 10.0 mi Calm Calm - N/A   Clear
9:15 PM 30.2 °F - 19.4 °F 64% 30.34 in 10.0 mi Calm Calm - N/A   Clear
9:35 PM 32.0 °F - 19.4 °F 60% 30.35 in 10.0 mi Calm Calm - N/A   Clear
9:55 PM 30.2 °F - 19.4 °F 64% 30.34 in 10.0 mi Calm Calm - N/A   Clear
10:35 PM 30.2 °F - 19.4 °F 64% 30.33 in 10.0 mi Calm Calm - N/A   Clear
11:15 PM 32.0 °F - 21.2 °F 64% 30.33 in 10.0 mi Calm Calm - N/A   Clear
11:35 PM 30.2 °F - 19.4 °F 64% 30.33 in 10.0 mi Calm Calm - N/A   Clear
11:55 PM 30.2 °F - 19.4 °F 64% 30.34 in 10.0 mi Calm Calm - N/A   Clear